Location: Bodest
(46.3000°N, 22.5667°E)
Time: 01:21:30
(UTC+00:00)

FENGYUN 1C DEB - Pass Details

Date: 08 April 2023
Orbit: 806 x 916 km, 98.8° (Epoch: 29 May)

Event Time Altitude Azimuth Distance (km) Brightness Sun altitude
Rises 17:26:24 0° 152° (SSE) 3,532 ? -4.0°
Reaches altitude 10° 17:28:51 10° 149° (SSE) 2,587 ? -4.4°
Maximum altitude 17:34:32 62° 70° (ENE) 1,006 ? -5.4°
Drops below altitude 10° 17:40:07 10° 352° (N) 2,545 ? -6.3°
Sets 17:42:30 0° 349° (N) 3,471 ? -6.7°
